This is the latest recevied weather packets stored in our database for station/object OE3APM-13. If no packets are shown the sender has not sent any weather packets the latest 10 day(s).
| Time | Temp. | Humidity | Pressure | Rain* | Wind** | Luminosity | Snow |
|---|---|---|---|---|---|---|---|
| 1778343597 | 18.33° C | 48% | 1016.9 hPa | 0 mm | - | 63 W/m² | - |
| 1778343303 | 18.89° C | 48% | 1016.9 hPa | 0 mm | - | 260 W/m² | - |
| 1778342999 | 18.89° C | 48% | 1017 hPa | 0 mm | - | 65 W/m² | - |
| 1778342698 | 18.89° C | 48% | 1017 hPa | 0 mm | - | 79 W/m² | - |
| 1778342398 | 18.89° C | 48% | 1017 hPa | 0 mm | - | 109 W/m² | - |
| 1778342098 | 18.89° C | 49% | 1017.1 hPa | 0 mm | - | 135 W/m² | - |
| 1778341800 | 18.89° C | 48% | 1017.1 hPa | 0 mm | - | 267 W/m² | - |
| 1778341497 | 18.89° C | 48% | 1017.1 hPa | 0 mm | - | 209 W/m² | - |
| 1778341198 | 19.44° C | 47% | 1017.2 hPa | 0 mm | - | 172 W/m² | - |
| 1778340897 | 19.44° C | 47% | 1017.2 hPa | 0 mm | - | 148 W/m² | - |
| 1778340596 | 19.44° C | 46% | 1017.2 hPa | 0 mm | - | 142 W/m² | - |
| 1778340296 | 20° C | 45% | 1017.1 hPa | 0 mm | - | 163 W/m² | - |
| 1778339996 | 20° C | 44% | 1017.1 hPa | 0 mm | - | 320 W/m² | - |
| 1778339695 | 19.44° C | 42% | 1017.1 hPa | 0 mm | - | 304 W/m² | - |
| 1778339394 | 19.44° C | 42% | 1017.1 hPa | 0 mm | - | 267 W/m² | - |
| 1778339096 | 19.44° C | 44% | 1017.2 hPa | 0 mm | - | 497 W/m² | - |
| 1778338787 | 19.44° C | 45% | 1017.2 hPa | 0 mm | - | 605 W/m² | - |
| 1778338485 | 18.89° C | 44% | 1017.2 hPa | 0 mm | - | 536 W/m² | - |
| 1778338184 | 18.89° C | 45% | 1017.2 hPa | 0 mm | - | 585 W/m² | - |
| 1778337884 | 18.33° C | 44% | 1017.2 hPa | 0 mm | - | 174 W/m² | - |
| 1778337584 | 18.89° C | 44% | 1017.2 hPa | 0 mm | - | 142 W/m² | - |
| 1778337283 | 19.44° C | 43% | 1017.3 hPa | 0 mm | - | 179 W/m² | - |
| 1778336986 | 19.44° C | 43% | 1017.3 hPa | 0 mm | - | 204 W/m² | - |
| 1778336684 | 19.44° C | 43% | 1017.3 hPa | 0 mm | - | 656 W/m² | - |
| 1778336385 | 20° C | 42% | 1017.3 hPa | 0 mm | - | 726 W/m² | - |
* Rain latest hour (hover to see other rain measurements)
** Current wind speed in m/s (hover to see current wind gust speed)